Weather History for KCZZ - November, 2011

Change the Weather History Date:

Monday, November 21, 2011

  Actual Average Record
Temperature  
Mean Temperature 48 °F 52 °F  
Max Temperature 55 °F 68 °F 83 °F (1998)
Min Temperature 40 °F 35 °F 16 °F (1979)
Degree Days  
Heating Degree Days 17 14  
Month to date heating degree days 327 227  
Since 1 July heating degree days 513 437  
Cooling Degree Days 0 0  
Month to date cooling degree days 0 0  
Year to date cooling degree days 733 839  
Moisture  
Dew Point 39 °F    
Average Humidity 77    
Maximum Humidity 100    
Minimum Humidity 54    
Precipitation  
Precipitation 0.13 in 0.04 in 0.80 in (1983)
Month to date precipitation 2.94 0.67  
Year to date precipitation 11.50 13.00  
Since 1 July precipitation 3.75 2.85  
Snow  
Snow 0.00 in - - ()
Month to date snowfall 0.0  
Year to date snowfall 0.0  
Since 1 July snowfall 0.0  
Snow Depth 0.00 in    
Sea Level Pressure  
Sea Level Pressure 30.08 in    
Wind  
Wind Speed 5 mph (West)    
Max Wind Speed 15 mph    
Max Gust Speed 20 mph    
T = Trace of Precipitation, MM = Missing Value Source: NWS Daily Summary

Daily Weather History Graph

Daily Weather History Graph

Search for Another Location

Airport or City:

Trip Planner

Search our weather history database for the weather conditions in past years. The results will help you decide how hot, cold, wet, or windy it might be!

Date:

Astronomy

Nov. 21, 2011 Rise Set
Actual Time 6:20 AM PST 4:42 PM PST
Civil Twilight 5:54 AM PST 5:08 PM PST
Nautical Twilight 5:24 AM PST 5:38 PM PST
Astronomical Twilight 4:55 AM PST 6:07 PM PST
Moon 2:15 AM PST (11/21) 1:58 PM PST (11/21)
Length of Visible Light 11h 13m
Length of Day
10h 21m
Waning Crescent, 16% of the Moon is Illuminated
Nov 21
Waning Crescent
Nov 24
New
Dec 2
First Quarter
Dec 10
Full
Dec 17
Last Quarter

Hourly Weather History & Observations

Time (PST) Temp. Windchill Dew Point Humidity Pressure Visibility Wind Dir Wind Speed Gust Speed Precip Events Conditions
12:52 AM 46.0 °F - 44.1 °F 93% 29.91 in - Calm Calm - N/A   Unknown
1:52 AM 45.0 °F 41.8 °F 44.1 °F 97% 29.91 in - SW 5.8 mph - 0.09 in   Unknown
2:52 AM 46.0 °F 43.1 °F 43.0 °F 89% 29.94 in - WNW 5.8 mph - 0.04 in   Unknown
3:52 AM 45.0 °F 43.5 °F 42.1 °F 90% 29.95 in - SW 3.5 mph - N/A   Unknown
4:52 AM 44.1 °F - 41.0 °F 89% 29.96 in - Calm Calm - N/A   Unknown
5:52 AM 39.9 °F - 39.0 °F 97% 30.01 in - Calm Calm - N/A   Unknown
6:52 AM 39.9 °F - 39.9 °F 100% 30.04 in - Calm Calm - N/A   Unknown
7:52 AM 45.0 °F 41.8 °F 43.0 °F 93% 30.06 in - SSW 5.8 mph - N/A   Unknown
8:52 AM 46.9 °F - 42.1 °F 83% 30.09 in - West 5.8 mph - N/A   Unknown
9:52 AM 48.9 °F - 39.9 °F 71% 30.09 in - SW 6.9 mph - N/A   Unknown
10:52 AM 51.1 °F - 37.9 °F 61% 30.09 in - WNW 10.4 mph - N/A   Unknown
11:52 AM 51.1 °F - 39.0 °F 63% 30.09 in - West 8.1 mph - N/A   Unknown
12:52 PM 53.1 °F - 39.0 °F 59% 30.07 in - SW 12.7 mph 19.6 mph N/A   Unknown
1:52 PM 54.0 °F - 37.9 °F 55% 30.08 in - West 10.4 mph - N/A   Unknown
2:52 PM 53.1 °F - 39.0 °F 59% 30.09 in - SW 11.5 mph - N/A   Unknown
3:52 PM 52.0 °F - 39.0 °F 61% 30.11 in - WNW 8.1 mph - N/A   Unknown
4:52 PM 48.9 °F - 39.0 °F 69% 30.13 in - Calm Calm - N/A   Unknown
5:52 PM 43.0 °F - 39.0 °F 86% 30.16 in - Calm Calm - N/A   Unknown
6:52 PM 39.0 °F 36.8 °F 36.0 °F 89% 30.18 in - NE 3.5 mph - N/A   Unknown
7:52 PM 37.9 °F 33.5 °F 36.0 °F 93% 30.18 in - NE 5.8 mph - N/A   Unknown
8:52 PM 37.9 °F 34.4 °F 35.1 °F 89% 30.18 in - NNE 4.6 mph - N/A   Unknown
9:52 PM 37.0 °F 33.3 °F 34.0 °F 89% 30.19 in - North 4.6 mph - N/A   Unknown
10:52 PM 34.0 °F - 32.0 °F 92% 30.19 in - Calm Calm - N/A   Unknown
11:52 PM 35.1 °F - 32.0 °F 89% 30.19 in - Calm Calm - N/A   Unknown